User: anonymous   Login
Location: Unspecified
(0.0000°N, 0.0000°E)
Time: 20:01:26
(UTC+00:00)
Language:

Cosmos 367 - Orbit

View from above orbital plane
View from above orbital plane
View from above satellite
View from above satellite

Ground track
Ground track

The orbit data is extracted from the following two-line orbital elements,

1 04564U 70079A   22334.35486095 -.00000065  00000-0  20284-4 0  9998
2 04564  65.2772 106.6896 0069449 218.7055 140.9018 13.78461250624637
Epoch (UTC): 30 November 2022 08:30:59
Eccentricity: 0.0069449
inclination: 65.2772°
perigee height: 918 km
apogee height: 1020 km
right ascension of ascending node: 106.6896°
argument of perigee: 218.7055°
revolutions per day: 13.78461250
mean anomaly at epoch: 140.9018°
orbit number at epoch: 62463

The dashed part of the orbit path shows where the satellite is in the earth's shadow,  

DLR